Change the Weather History Date:

Saturday, November 24, 2012

  Actual Average Record
Temperature  
Mean Temperature 13 °F -  
Max Temperature 23 °F 30 °F 54 °F (1984)
Min Temperature 5 °F 10 °F -22 °F (1985)
Degree Days  
Heating Degree Days 52    
Moisture  
Dew Point 9 °F    
Average Humidity 80    
Maximum Humidity 87    
Minimum Humidity 71    
Precipitation  
Precipitation 0.00 in - - ()
Sea Level Pressure  
Sea Level Pressure 30.05 in    
Wind  
Wind Speed 5 mph (SSE)    
Max Wind Speed 16 mph    
Max Gust Speed -    
Visibility 9 miles    
Events Snow    
Averages and records for this station are not official NWS values.
T = Trace of Precipitation, MM = Missing Value Source: NWS Daily Summary

Daily Weather History Graph

Daily Weather History Graph

Search for Another Location

Airport or City:

Trip Planner

Search our weather history database for the weather conditions in past years. The results will help you decide how hot, cold, wet, or windy it might be!

Date:

Astronomy

Nov. 24, 2012 Rise Set
Actual Time 7:36 AM CST 4:37 PM CST
Civil Twilight 7:02 AM CST 5:11 PM CST
Nautical Twilight 6:25 AM CST 5:48 PM CST
Astronomical Twilight 5:48 AM CST 6:25 PM CST
Moon 2:32 PM CST (11/24) 3:43 AM CST (11/24)
Length of Visible Light 10h 08m
Length of Day
9h 00m
Waxing Gibbous, 87% of the Moon is Illuminated
Nov 24
Waxing Gibbous
Nov 28
Full
Dec 6
Last Quarter
Dec 13
New
Dec 19
First Quarter

Hourly Weather History & Observations

Time (CST) Temp. Windchill Dew Point Humidity Pressure Visibility Wind Dir Wind Speed Gust Speed Precip Events Conditions
12:53 AM 5.0 °F - 1.0 °F 84% 30.39 in 10.0 mi Calm Calm - N/A   Overcast
1:15 AM 5.0 °F - 1.4 °F 85% 30.28 in 10.0 mi Calm Calm - N/A   Overcast
1:53 AM 6.1 °F - 1.9 °F 83% 30.37 in 9.0 mi Calm Calm - 0.00 in   Overcast
2:53 AM 8.1 °F - 3.9 °F 83% 30.35 in 10.0 mi Calm Calm - N/A   Mostly Cloudy
3:53 AM 7.0 °F - 3.0 °F 84% 30.33 in 10.0 mi Calm Calm - N/A   Overcast
4:53 AM 7.0 °F 0.1 °F 3.9 °F 87% 30.32 in 10.0 mi SE 3.5 mph - N/A   Overcast
5:53 AM 7.0 °F -3.3 °F 3.0 °F 84% 30.30 in 10.0 mi SSE 5.8 mph - N/A   Overcast
6:53 AM 6.1 °F -7.8 °F 3.0 °F 87% 30.27 in 6.0 mi SSE 9.2 mph - 0.00 in Snow Light Snow
7:53 AM 7.0 °F -5.7 °F 3.9 °F 87% 30.25 in 6.0 mi SSE 8.1 mph - 0.00 in   Overcast
8:53 AM 8.1 °F -7.0 °F 5.0 °F 87% 30.20 in 10.0 mi SSE 11.5 mph - 0.00 in   Overcast
9:53 AM 10.9 °F -2.6 °F 7.0 °F 84% 30.19 in 6.0 mi SSE 10.4 mph - 0.00 in   Overcast
10:21 AM 12.2 °F -4.3 °F 6.8 °F 79% 30.06 in 10.0 mi SSE 16.1 mph - N/A   Overcast
10:53 AM 14.0 °F 0.5 °F 8.1 °F 77% 30.14 in 10.0 mi SSE 11.5 mph - N/A   Overcast
11:53 AM 15.1 °F 1.1 °F 9.0 °F 77% 30.08 in 10.0 mi SSE 12.7 mph - N/A   Overcast
12:53 PM 17.1 °F 3.6 °F 10.0 °F 74% 30.02 in 10.0 mi SSE 12.7 mph - N/A   Overcast
1:53 PM 18.0 °F 4.8 °F 10.0 °F 71% 29.99 in 10.0 mi SSE 12.7 mph - N/A   Overcast
2:53 PM 19.0 °F 5.6 °F 10.9 °F 71% 29.92 in 10.0 mi SSE 13.8 mph - N/A   Overcast
3:53 PM 19.0 °F 6.8 °F 12.0 °F 74% 29.91 in 10.0 mi South 11.5 mph - N/A   Overcast
4:21 PM 19.4 °F 9.5 °F 12.2 °F 74% 29.81 in 2.0 mi South 8.1 mph - 0.00 in Snow Light Snow
4:32 PM 19.4 °F 9.5 °F 12.2 °F 74% 29.81 in 5.0 mi South 8.1 mph - 0.00 in Snow Light Snow
4:49 PM 19.4 °F 8.6 °F 12.2 °F 74% 29.80 in 9.0 mi South 9.2 mph - 0.00 in   Overcast
4:53 PM 19.0 °F 7.5 °F 12.9 °F 77% 29.88 in 10.0 mi South 10.4 mph - 0.00 in   Overcast
5:53 PM 19.0 °F 8.2 °F 12.9 °F 77% 29.89 in 10.0 mi South 9.2 mph - N/A   Overcast
6:53 PM 19.9 °F 8.6 °F 14.0 °F 78% 29.87 in 10.0 mi South 10.4 mph - N/A   Overcast
7:46 PM 19.4 °F 12.8 °F 15.8 °F 86% 29.78 in 10.0 mi SSW 4.6 mph - N/A   Overcast
7:53 PM 19.9 °F 12.1 °F 15.1 °F 81% 29.87 in 10.0 mi SSW 5.8 mph - N/A   Overcast
8:53 PM 21.0 °F 14.6 °F 15.1 °F 78% 29.85 in 10.0 mi SSW 4.6 mph - N/A   Overcast
9:53 PM 21.0 °F - 16.0 °F 81% 29.86 in 10.0 mi Calm Calm - N/A   Overcast
10:53 PM 21.0 °F 16.2 °F 16.0 °F 81% 29.85 in 10.0 mi WSW 3.5 mph - N/A   Overcast
11:53 PM 23.0 °F 13.9 °F 18.0 °F 81% 29.86 in 10.0 mi NW 8.1 mph - N/A   Overcast